カタログに戻る

STARLINK-33749

運用中通信VLEO
NORAD 63716·PAYLOAD·🇺🇸 United States

打ち上げ Apr 28, 2025 から Vandenberg Space Force Base

Loading…

次のパス (今後24時間)

TLE

最新Source: CelesTrak SupGP

元期: Sep 14, 2026, 22:40 UTC

1 63716C 25087V   26257.94493056  .00039671  00000+0  12761-2 0  2578
2 63716  53.1581  59.2504 0001249  84.9963 245.9963 15.31672388    11

AllMySatでSTARLINK-33749をリアルタイム追跡

Download on the App Store